#timestamp,LO_Frequency,Hit,StdDev 
1514070015.2,286047005.6,N
1514070035.1,286047003.6,N
1514070036.0,286047003.6,N
1514070055.9,286047004.7,N
1514070075.7,286047005.9,Y
1514070095.6,286047002.8,P
1514070115.9,286047007.6,P
1514070135.7,286047004.7,N
1514070155.6,286047004.5,N
1514070175.4,286047002.9,N
1514070195.3,286047004.0,N
1514070215.1,286047002.7,N
1514070216.0,286047002.7,N
1514070235.8,286047001.2,N
1514070255.7,286046998.2,N
1514070275.5,286046996.5,N
1514070295.3,286046996.7,N
1514070315.2,286046996.8,N
1514070335.0,286046997.4,N
1514070335.9,286046997.4,N
1514070355.8,286046998.9,N
1514070375.6,286046997.2,N
1514070395.4,286046999.9,N
1514070415.3,286046998.2,N
1514070435.1,286047001.2,N
1514070455.8,286046998.6,N
1514070475.7,286046999.5,N
1514070495.5,286046996.6,N
1514070515.4,286046997.9,N
1514070535.2,286046995.4,N
1514070555.0,286046997.4,N
1514070555.9,286046997.4,N
1514070575.8,286047000.5,N
1514070595.6,286047002.1,N
1514070615.4,286047004.0,N
1514070635.3,286047009.1,N
1514070655.1,286047009.5,N
1514070675.9,286047009.5,N
1514070695.7,286047012.4,Y
1514070715.6,286047007.0,P
1514070735.4,286047003.8,N
1514070755.2,286047001.1,N
1514070775.1,286046996.5,N
1514070776.0,286046996.5,N
1514070795.8,286047001.2,N
1514070815.6,286046999.3,N
1514070835.5,286047001.0,N
1514070855.3,286047000.7,N
1514070875.2,286047001.1,N
1514070895.8,286046999.9,N
1514070915.6,286046999.7,N
1514070935.5,286047001.5,N
1514070955.3,286047001.2,N
1514070975.1,286046999.3,N
1514070995.9,286046996.5,N
1514071015.7,286046999.9,N
1514071035.5,286047005.8,N
1514071055.4,286047005.6,N
1514071075.2,286047003.9,N
1514071095.1,286047003.7,N
1514071096.0,286047003.7,N
1514071115.8,286047002.2,N
1514071135.6,286047002.6,N
1514071155.5,286046999.7,N
1514071175.3,286047000.6,N
1514071195.2,286046999.1,N
1514071215.8,286046999.3,N
1514071235.6,286047001.2,N
1514071255.5,286046998.2,N
1514071275.3,286046998.4,N
1514071295.1,286046998.4,N
1514071315.9,286047002.8,N
1514071335.7,286047001.5,N
1514071355.6,286047000.4,N
1514071375.4,286046998.8,N
1514071395.2,286046999.4,N
1514071415.1,286046996.5,N
1514071416.0,286046996.5,N
1514071435.8,286046997.7,N
1514071455.7,286046999.2,N
1514071475.5,286046998.8,N
1514071495.3,286046998.5,N
1514071515.2,286046998.4,N
1514071535.0,286046998.3,N
1514071535.9,286046998.3,N
1514071555.7,286046998.4,N
1514071575.6,286046996.5,N
1514071595.4,286046997.0,N
1514071615.3,286046996.9,N
1514071635.1,286046997.4,N
1514071636.0,286046997.4,N
1514071655.8,286046996.9,N
1514071675.7,286046999.5,N
1514071695.5,286046995.0,Y
1514071715.4,286046996.8,P
1514071735.4,286046995.2,P
1514071755.3,286046995.0,P
1514071775.1,286046995.1,Y
1514071776.0,286046995.1,P
1514071795.8,286046998.1,N
1514071815.7,286046998.6,N
1514071835.5,286047011.9,Y
1514071855.4,286047000.8,P
1514071875.2,286047001.0,N
1514071895.0,286046998.2,N
1514071895.9,286046998.2,N
1514071915.8,286046999.8,N
1514071935.6,286047001.5,N
1514071955.4,286047003.9,N
1514071975.3,286047002.6,N
1514071995.1,286047004.4,N
1514072015.9,286047000.1,N
1514072035.7,286046999.7,N
1514072055.5,286047000.6,N
1514072075.4,286046998.3,N
1514072095.2,286046998.3,N
1514072115.1,286047000.7,N
1514072116.0,286047000.7,N
1514072135.8,286047000.4,N
1514072155.6,286046999.9,N
1514072175.5,286047000.5,N
1514072195.3,286047000.3,N
1514072215.1,286047002.0,N
1514072235.9,286046999.8,N
1514072255.7,286047002.7,N
1514072275.6,286047002.2,N
1514072295.4,286047002.3,N
1514072315.2,286047002.2,N
1514072335.1,286047002.7,N
1514072336.0,286047002.7,N
1514072355.8,286047002.0,N
1514072375.6,286047001.9,N
1514072395.5,286046999.8,N
1514072415.3,286047004.2,N
1514072435.2,286047002.5,N
1514072455.9,286047002.2,N
1514072475.7,286047001.4,N
1514072495.6,286047001.6,N
1514072515.4,286047001.9,N
1514072535.3,286047004.3,N
1514072555.1,286047001.6,N
1514072575.9,286047002.3,N
1514072595.7,286047002.7,N
1514072615.5,286047002.8,N
1514072635.4,286047001.9,N
1514072655.2,286046999.8,N
1514072675.0,286047002.8,N
1514072675.9,286047002.8,N
1514072695.8,286046999.9,N
1514072715.6,286047002.1,N
1514072735.5,286047003.1,N
1514072755.7,286047008.5,Y
1514072775.5,286047007.5,P
1514072795.4,286047007.4,N
1514072815.2,286047004.9,N
1514072835.1,286047005.0,N
1514072836.0,286047005.0,N
1514072855.8,286047007.4,Y
1514072875.6,286047001.9,P
1514072895.5,286046999.8,N
1514072915.3,286046999.9,N
1514072935.1,286046998.3,N
1514072955.9,286046998.8,N
1514072975.7,286046999.5,N
1514072995.6,286046996.3,N
1514073015.4,286046993.9,N
1514073035.2,286046993.5,N
1514073055.1,286046995.9,N
1514073056.0,286046995.9,N
1514073075.8,286046993.4,N
1514073095.6,286046995.2,N
1514073115.5,286046997.7,N
1514073135.6,286046997.7,N
1514073155.5,286046996.6,N
1514073175.3,286046996.7,N
1514073195.1,286046998.9,N
1514073215.9,286046998.9,N
1514073235.7,286046999.0,N
1514073255.6,286046996.7,N
1514073275.4,286046996.7,N
1514073295.2,286046999.5,N
1514073315.1,286046997.1,N
1514073316.0,286046997.1,N
1514073335.8,286046997.7,N
1514073355.7,286046997.1,N
1514073375.5,286046999.5,N
1514073395.3,286046997.9,N
1514073415.2,286046995.8,N
1514073435.9,286046997.2,N
1514073455.7,286046995.1,N
1514073475.6,286046993.6,Y
1514073495.4,286046998.6,P
1514073515.3,286046998.3,N
1514073535.1,286047000.4,N
1514073536.0,286047000.4,N
1514073555.1,286046998.3,N
1514073575.8,286047000.8,N
1514073595.7,286046997.7,N
